Location: Beccas
(43.4309°N, 0.1528°E)
Time: 10:58:58
(UTC+00:00)

Cosmos 2366 rocket - Pass Details

Date: 15 October 2021
Orbit: 955 x 996 km, 82.9° (Epoch: 07 December)

Event Time Altitude Azimuth Distance (km) Brightness Sun altitude
Rises 17:54:17 0° 188° (S) 3,622 7.2 -7.7°
Reaches altitude 10° 17:56:46 10° 190° (S) 2,683 6.5 -8.1°
Maximum altitude 18:02:55 82° 278° (W) 979 4.1 -9.3°
Drops below altitude 10° 18:09:10 10° 6° (N) 2,724 6.3 -10.4°
Sets 18:11:42 0° 8° (N) 3,682 6.9 -10.9°
